[[{"header":{"parameterUnit":"m.s-1","parameterCategory":1,"la1":30.2991,"la2":30.254,"lo1":-89.0895,"lo2":-89.0444,"dy":0.0017,"dx":0.0017,"nx":28,"ny":28,"refTime":"2024-09-28T09:00:00:Z","depth":0,"parameterNumber":2,"parameterNumberName":"U-component_of_WINDS"},"data":[0,0,0,0,0,0,0,0,0,0,0,0,0,0,0,0,0,0,0,0,0,0,0,0,0,0,0,0,0,0,0,0,0,0,0,0,0,0,0,0,0,0,0,0,0,0,0,0,0,0,0,0,0,0,0,0,0,0,5.4573,5.4575,0,5.4742,5.4744,5.4746,5.4668,5.4664,5.466,5.4656,5.4829,5.4837,5.4846,0,0,0,0,0,0,0,0,0,0,0,0,0,5.4182,5.419,5.4573,5.4575,5.4577,5.4742,5.4744,5.4747,5.4669,5.4664,5.4659,5.4654,5.4826,5.4836,5.4847,0,0,0,0,0,0,0,0,0,0,0,0,0,5.4352,5.4192,5.4573,5.4559,5.4559,5.4742,5.4744,5.4747,5.467,5.4664,5.4657,5.4652,5.4823,5.4835,5.4848,5.5054,0,0,5.4887,5.4893,0,0,0,0,0,0,0,0,5.4342,5.4366,5.4559,5.456,5.4561,5.4678,5.467,5.485,5.4672,5.4628,5.4656,5.4648,5.4784,5.4799,5.4845,5.5062,5.507,5.4888,5.4896,5.4902,5.4905,0,0,0,0,0,0,0,5.4331,5.4359,5.464,5.4561,5.4563,5.4543,5.456,5.4704,5.4739,5.4631,5.4626,5.4647,5.4783,5.4833,5.4849,5.5072,5.4888,5.4899,5.4907,5.4912,5.5465,5.5472,0,0,0,0,0,0,5.4319,5.4349,5.4635,5.4645,5.4434,5.4556,5.4575,5.4647,5.4738,5.4745,5.4652,5.4643,5.4814,5.4834,5.4854,5.51,5.4901,5.4914,5.4921,5.5458,5.5467,5.5474,0,0,0,0,0,0,5.4311,5.4346,5.4628,5.4496,5.453,5.4569,5.465,5.4653,5.4703,5.4754,5.4759,5.4697,5.481,5.4836,5.5005,5.5105,5.4919,5.4931,5.545,5.5461,5.547,5.5594,0,0,0,0,0,0,5.43,5.4343,5.4422,5.4498,5.4538,5.4776,5.4657,5.4661,5.4725,5.4714,5.4797,5.4804,5.4807,5.4986,5.5017,5.5119,5.4941,5.5441,5.5455,5.5467,5.5581,5.5607,5.563,0,0,0,0,0,5.4287,5.4451,5.4427,5.4461,5.4637,5.4782,5.4804,5.4804,5.4734,5.4813,5.4845,5.4802,5.5089,5.5004,5.5039,5.5146,5.5435,5.5451,5.5466,5.557,5.5602,5.5629,0,0,0,0,0,0,5.4386,5.446,5.4435,5.4628,5.4699,5.4768,5.4869,5.4838,5.4931,5.4917,5.4913,5.4932,5.5106,5.5143,5.5046,5.5349,5.5251,5.5274,5.5318,5.5349,5.5373,5.5359,5.4952,0,0,0,0,0,5.443,5.4541,5.4601,5.4766,5.4803,5.483,5.4893,5.4886,5.496,5.4989,5.5034,5.5107,5.5213,5.5284,5.5385,5.5586,5.5602,5.5677,5.5702,5.5721,5.5741,5.5848,5.5881,5.5526,5.5526,5.5525,0,0,5.4523,5.4577,5.4648,5.4787,5.4841,5.4956,5.4856,5.4982,5.5066,5.5009,5.5169,5.5205,5.5286,5.5471,5.5555,5.5508,5.5843,5.5741,5.5757,5.5766,5.5868,5.5901,5.5931,5.5536,5.5534,5.5533,0,0,5.475,5.4803,5.4945,5.5002,5.5085,5.5102,5.5136,5.521,5.5231,5.5393,5.5351,5.5452,5.5636,5.5695,5.5749,5.5997,5.596,5.6031,5.6157,5.6262,5.629,5.6314,5.6401,5.6432,5.605,5.6051,5.6051,0,5.4854,5.5025,5.5023,5.5151,5.5213,5.5166,5.5309,5.5364,5.5477,5.552,5.5465,5.5694,5.5745,5.5942,5.6003,5.6049,5.6086,5.602,5.6286,5.6311,5.6334,5.6416,5.6449,5.6059,5.6058,5.6057,5.6056,0,5.5149,5.5268,5.5373,5.5482,5.5555,5.5691,5.5708,5.5783,5.577,5.5793,5.5957,5.6017,5.6128,5.6175,5.6164,5.6371,5.6338,5.6285,5.6186,5.6376,5.6452,5.6484,5.607,5.6067,5.6065,5.6063,0,0,5.5442,5.5547,5.5585,5.5633,5.5721,5.5813,5.5946,5.6055,5.6118,5.6197,5.6307,5.6464,5.6415,5.6476,5.6472,5.6564,5.6754,5.6499,5.6501,5.6542,5.6982,5.7019,5.7056,5.673,5.6736,5.6741,5.6974,0,5.5673,5.5906,5.5906,5.6121,5.623,5.6187,5.6302,5.6368,5.6393,5.6489,5.6516,5.6626,5.6554,5.6591,5.668,5.6712,5.6842,5.6695,5.6831,5.6836,5.6809,5.7097,5.7137,5.7354,5.7005,5.701,5.7014,0,5.5974,5.6062,5.6286,5.6357,5.6403,5.6507,5.6605,5.6698,5.6772,5.6783,5.6852,5.6833,5.6967,5.6866,5.705,5.695,5.7006,5.703,5.7038,5.7049,5.6934,5.7113,5.7424,5.7455,5.7061,5.7058,5.7054,0,5.6161,5.6337,5.6493,5.6536,5.6623,5.6697,5.6736,5.6804,5.6869,5.6955,5.6996,5.7098,5.7153,5.7231,5.724,5.7166,5.7425,5.7324,5.7436,5.7436,5.749,5.7486,5.7812,5.7531,5.7531,5.753,5.7529,0,5.6418,5.6557,5.6578,5.6674,5.6828,5.6828,5.698,5.7013,5.7073,5.7174,5.7144,5.724,5.7246,5.7344,5.7352,5.7502,5.7528,5.7539,5.7539,5.7541,5.7539,5.7575,5.7559,5.7539,5.7537,5.7535,5.7534,0,5.6653,5.6673,5.684,5.6909,5.693,5.704,5.7098,5.7189,5.7211,5.7339,5.7369,5.7403,5.7516,5.7533,5.7667,5.7672,5.7851,5.7836,5.7825,5.7822,5.7932,5.792,5.829,5.8338,5.8029,5.8031,5.8034,0,5.6814,5.692,5.6999,5.7065,5.7108,5.7214,5.728,5.7284,5.7353,5.7445,5.7524,5.7635,5.7723,5.7906,5.7942,5.8044,5.803,5.8153,5.8045,5.8042,5.8028,5.8021,5.803,5.8172,5.8176,5.8179,5.8181,0,5.7097,5.7102,5.7197,5.7297,5.7375,5.7454,5.7528,5.7583,5.7596,5.7676,5.7791,5.786,5.7995,5.8104,5.8205,5.8244,5.8215,5.8215,5.8245,5.8246,5.8235,5.824,5.7879,5.8206,5.8203,5.8201,5.82,5.8199,5.7298,5.7389,5.7459,5.7566,5.7622,5.7691,5.778,5.7812,5.7908,5.8018,5.8015,5.8142,5.8211,5.8343,5.839,5.8488,5.8448,5.8493,5.8504,5.8515,5.8524,5.8221,5.8507,5.8506,5.8506,5.8505,5.8505,0,5.7577,5.762,5.7719,5.7822,5.7906,5.7872,5.7951,5.8023,5.8135,5.8203,5.829,5.8422,5.8527,5.8572,5.8675,5.8745,5.8734,5.8772,5.8765,5.8774,5.8555,5.8517,5.8779,5.8779,5.8779,5.8779,5.8779,5.8779,5.7732,5.7883,5.7896,5.8074,5.8115,5.8238,5.8287,5.835,5.8404,5.8552,5.8639,5.8668,5.8726,5.8833,5.8928,5.8938,5.8976,5.902,5.9024,5.8818,5.879,5.8764,5.8727,5.9029,5.9029,5.9234,5.9236,5.9238]},{"header":{"parameterUnit":"m.s-1","parameterCategory":1,"la1":30.2991,"la2":30.254,"lo1":-89.0895,"lo2":-89.0444,"dy":0.0017,"dx":0.0017,"nx":28,"ny":28,"refTime":"2024-09-28T09:00:00:Z","depth":0,"parameterNumber":3,"parameterNumberName":"V-component_of_WINDS"},"data":[0,0,0,0,0,0,0,0,0,0,0,0,0,0,0,0,0,0,0,0,0,0,0,0,0,0,0,0,0,0,0,0,0,0,0,0,0,0,0,0,0,0,0,0,0,0,0,0,0,0,0,0,0,0,0,0,0,0,1.6728,1.6729,0,1.6788,1.6789,1.6789,1.6767,1.6766,1.6764,1.6763,1.6823,1.6826,1.6829,0,0,0,0,0,0,0,0,0,0,0,0,0,1.6592,1.6594,1.6728,1.6729,1.6729,1.6788,1.6789,1.6789,1.6767,1.6766,1.6764,1.6762,1.6822,1.6826,1.6829,0,0,0,0,0,0,0,0,0,0,0,0,0,1.6651,1.6595,1.6728,1.6725,1.6726,1.6788,1.6789,1.679,1.6768,1.6765,1.6763,1.6762,1.6821,1.6825,1.683,1.6897,0,0,1.6843,1.6845,0,0,0,0,0,0,0,0,1.6648,1.6656,1.6725,1.6726,1.6726,1.6768,1.6763,1.6826,1.6768,1.6752,1.6763,1.6761,1.6806,1.6812,1.6828,1.69,1.6903,1.6843,1.6846,1.6848,1.6849,0,0,0,0,0,0,0,1.6644,1.6653,1.6752,1.6726,1.6727,1.672,1.6727,1.6775,1.679,1.6753,1.6751,1.6759,1.6806,1.6824,1.6829,1.6904,1.6843,1.6847,1.685,1.6851,1.7033,1.7035,0,0,0,0,0,0,1.664,1.665,1.675,1.6753,1.6681,1.6725,1.6732,1.6757,1.6789,1.6792,1.6761,1.6758,1.6817,1.6824,1.6831,1.6912,1.6848,1.6852,1.6854,1.7031,1.7034,1.7036,0,0,0,0,0,0,1.6637,1.6649,1.6747,1.6701,1.6713,1.6729,1.6757,1.6759,1.6776,1.6795,1.6797,1.6775,1.6816,1.6825,1.6881,1.6913,1.6854,1.6858,1.7028,1.7032,1.7035,1.7074,0,0,0,0,0,0,1.6633,1.6648,1.6674,1.6702,1.6716,1.6797,1.6759,1.6761,1.6784,1.678,1.681,1.6812,1.6815,1.6874,1.6885,1.6918,1.6861,1.7025,1.703,1.7034,1.707,1.7078,1.7085,0,0,0,0,0,1.6628,1.6683,1.6676,1.6688,1.675,1.6799,1.6807,1.6809,1.6786,1.6813,1.6825,1.6812,1.6908,1.688,1.6892,1.6927,1.7023,1.7029,1.7033,1.7066,1.7076,1.7085,0,0,0,0,0,0,1.6659,1.6687,1.6679,1.6745,1.677,1.6795,1.6829,1.682,1.6851,1.6847,1.6848,1.6854,1.6912,1.6925,1.6894,1.6993,1.6962,1.697,1.6983,1.6993,1.7,1.6996,1.6865,0,0,0,0,0,1.6673,1.6711,1.6733,1.6789,1.6802,1.6813,1.6835,1.6834,1.686,1.687,1.6886,1.6911,1.6947,1.697,1.7004,1.7071,1.7077,1.7101,1.7108,1.7115,1.7121,1.7156,1.7167,1.7053,1.7052,1.7052,0,0,1.6703,1.6723,1.6747,1.6796,1.6815,1.6854,1.6822,1.6865,1.6893,1.6876,1.693,1.6943,1.697,1.7032,1.706,1.7044,1.7154,1.7121,1.7126,1.7129,1.7163,1.7174,1.7183,1.7056,1.7055,1.7055,0,0,1.6778,1.6797,1.6845,1.6865,1.6894,1.6901,1.6912,1.6939,1.6947,1.7001,1.6988,1.7022,1.7084,1.7104,1.7122,1.7202,1.7191,1.7213,1.7254,1.7288,1.7297,1.7305,1.7333,1.7344,1.722,1.722,1.722,0,1.6811,1.687,1.6871,1.6914,1.6935,1.6921,1.697,1.6988,1.7027,1.7042,1.7024,1.7101,1.7119,1.7184,1.7203,1.7219,1.7231,1.721,1.7296,1.7304,1.7312,1.7338,1.7349,1.7222,1.7222,1.7222,1.7222,0,1.6909,1.695,1.6985,1.7023,1.7048,1.7094,1.7101,1.7126,1.7122,1.7131,1.7185,1.7205,1.7243,1.7258,1.7255,1.7323,1.7312,1.7296,1.7264,1.7325,1.735,1.736,1.7226,1.7225,1.7224,1.7224,0,0,1.7006,1.7043,1.7056,1.7072,1.7103,1.7134,1.7178,1.7215,1.7236,1.7263,1.73,1.7352,1.7336,1.7356,1.7355,1.7385,1.7447,1.7365,1.7365,1.7379,1.7521,1.7534,1.7546,1.7439,1.7441,1.7443,1.7519,0,1.7083,1.7162,1.7163,1.7234,1.7271,1.7258,1.7296,1.7319,1.7327,1.7359,1.7368,1.7405,1.7381,1.7393,1.7422,1.7433,1.7475,1.7428,1.7473,1.7474,1.7467,1.7559,1.7573,1.7644,1.7529,1.753,1.7532,0,1.7184,1.7214,1.7289,1.7313,1.7329,1.7363,1.7396,1.7427,1.7452,1.7456,1.7478,1.7472,1.7516,1.7483,1.7543,1.7511,1.7529,1.7537,1.754,1.7544,1.7507,1.7566,1.7667,1.7677,1.7547,1.7546,1.7545,0,1.7246,1.7305,1.7358,1.7372,1.7402,1.7426,1.744,1.7462,1.7484,1.7512,1.7526,1.7559,1.7578,1.7603,1.7606,1.7581,1.7666,1.7633,1.767,1.767,1.7689,1.7687,1.7794,1.77,1.77,1.77,1.77,0,1.7332,1.7379,1.7386,1.7419,1.747,1.747,1.7521,1.7532,1.7552,1.7585,1.7575,1.7606,1.7608,1.764,1.7642,1.7691,1.77,1.7703,1.7703,1.7705,1.7704,1.7717,1.7712,1.7703,1.7702,1.7702,1.7701,0,1.7411,1.7418,1.7474,1.7497,1.7504,1.7541,1.756,1.759,1.7597,1.764,1.765,1.766,1.7697,1.7702,1.7746,1.7747,1.7806,1.7801,1.7798,1.7797,1.7833,1.783,1.7951,1.7967,1.7864,1.7865,1.7865,0,1.7465,1.7501,1.7528,1.7549,1.7564,1.7599,1.7621,1.7622,1.7645,1.7675,1.7701,1.7737,1.7766,1.7826,1.7837,1.7869,1.7865,1.7905,1.787,1.7869,1.7865,1.7863,1.7866,1.7912,1.7913,1.7914,1.7915,0,1.7561,1.7563,1.7595,1.7628,1.7654,1.768,1.7704,1.7723,1.7726,1.7753,1.779,1.7813,1.7856,1.7892,1.7924,1.7936,1.7926,1.7926,1.7936,1.7938,1.7934,1.7936,1.7816,1.7923,1.7923,1.7922,1.7921,1.7921,1.7629,1.766,1.7683,1.7719,1.7737,1.776,1.7789,1.78,1.7831,1.7867,1.7865,1.7907,1.7929,1.7971,1.7986,1.8017,1.8004,1.8019,1.8022,1.8026,1.803,1.7929,1.8023,1.8023,1.8023,1.8022,1.8022,0,1.7724,1.7738,1.7771,1.7806,1.7833,1.7821,1.7847,1.7871,1.7908,1.7929,1.7958,1.8,1.8034,1.8048,1.808,1.8103,1.8099,1.8112,1.811,1.8113,1.804,1.8028,1.8114,1.8114,1.8114,1.8114,1.8114,1.8114,1.7777,1.7828,1.7832,1.7891,1.7904,1.7945,1.7961,1.7981,1.7998,1.8046,1.8075,1.8083,1.8101,1.8135,1.8165,1.8168,1.8181,1.8195,1.8196,1.8128,1.8118,1.8109,1.8098,1.8198,1.8198,1.8267,1.8267,1.8268]}]]